This is the latest recevied weather packets stored in our database for station/object KC8YYF. If no packets are shown the sender has not sent any weather packets the latest 10 day(s).
| Time | Temp. | Humidity | Pressure | Rain* | Wind** | Luminosity | Snow |
|---|---|---|---|---|---|---|---|
| 1777323059 | 25.56° C | 43% | 1016.9 hPa | 0 mm | - | 213 W/m² | - |
| 1777322757 | 24.44° C | 43% | 1016.8 hPa | 0 mm | - | 235 W/m² | - |
| 1777322455 | 25° C | 44% | 1016.9 hPa | 0 mm | - | 196 W/m² | - |
| 1777322151 | 25° C | 49% | 1017.1 hPa | 0 mm | - | 133 W/m² | - |
| 1777321848 | 24.44° C | 46% | 1016.9 hPa | 0 mm | - | 131 W/m² | - |
| 1777321545 | 23.89° C | 43% | 1016.9 hPa | 0 mm | - | 130 W/m² | - |
| 1777321242 | 23.89° C | 44% | 1017.2 hPa | 0 mm | - | 149 W/m² | - |
| 1777320939 | 23.89° C | 45% | 1016.9 hPa | 0 mm | - | 120 W/m² | - |
| 1777320637 | 23.89° C | 44% | 1017.1 hPa | 0 mm | - | 131 W/m² | - |
| 1777320333 | 23.89° C | 45% | 1017.1 hPa | 0 mm | - | 121 W/m² | - |
| 1777320030 | 23.89° C | 44% | 1017.1 hPa | 0 mm | - | 124 W/m² | - |
| 1777319727 | 23.89° C | 46% | 1017 hPa | 0 mm | - | 146 W/m² | - |
| 1777319424 | 23.89° C | 47% | 1017.3 hPa | 0 mm | - | 130 W/m² | - |
| 1777319121 | 23.89° C | 46% | 1017.3 hPa | 0 mm | - | 146 W/m² | - |
| 1777318819 | 23.89° C | 44% | 1017.6 hPa | 0 mm | - | 119 W/m² | - |
| 1777318515 | 23.89° C | 46% | 1017.6 hPa | 0 mm | - | 105 W/m² | - |
| 1777318212 | 23.89° C | 45% | 1017.6 hPa | 0 mm | - | 113 W/m² | - |
| 1777317909 | 23.89° C | 46% | 1017.6 hPa | 0 mm | - | 97 W/m² | - |
| 1777317606 | 23.89° C | 49% | 1017.9 hPa | 0 mm | - | 99 W/m² | - |
| 1777317303 | 23.89° C | 46% | 1018.1 hPa | 0 mm | - | 105 W/m² | - |
| 1777316997 | 23.89° C | 47% | 1018 hPa | 0 mm | - | 148 W/m² | - |
| 1777316695 | 23.33° C | 48% | 1018.1 hPa | 0 mm | - | 124 W/m² | - |
| 1777316391 | 22.78° C | 49% | 1018.2 hPa | 0 mm | - | 121 W/m² | - |
| 1777316089 | 22.78° C | 48% | 1018.5 hPa | 0 mm | - | 122 W/m² | - |
| 1777315787 | 23.89° C | 49% | 1018.3 hPa | 0 mm | - | 114 W/m² | - |
* Rain latest hour (hover to see other rain measurements)
** Current wind speed in m/s (hover to see current wind gust speed)